Overview Statistics Trail Chart Weather Telemetry Raw packets
 

This is the latest recevied weather packets stored in our database for station/object N0NB. If no packets are shown the sender has not sent any weather packets the latest 10 day(s).

<< 29 30 31 32 33 34 35 >>
Time Temp. Humidity Pressure Rain* Wind** Luminosity Snow
1788211217 34.44° C 54% 1012.6 hPa 0 mm - 569 W/m² -
1788210616 34.44° C 53% 1012.6 hPa 0 mm - 605 W/m² -
1788210016 34.44° C 51% 1012.8 hPa 0 mm - 603 W/m² -
1788209416 33.89° C 54% 1012.9 hPa 0 mm - 630 W/m² -
1788208816 33.89° C 54% 1013 hPa 0 mm - 619 W/m² -
1788208216 33.89° C 52% 1013.1 hPa 0 mm - 659 W/m² -
1788207616 33.89° C 51% 1013.2 hPa 0 mm - 670 W/m² -
1788207016 33.89° C 50% 1013.3 hPa 0 mm - 688 W/m² -
1788206416 33.89° C 53% 1013.5 hPa 0 mm - 718 W/m² -
1788205816 33.89° C 53% 1013.5 hPa 0 mm - 708 W/m² -
1788205216 33.33° C 51% 1013.5 hPa 0 mm - 729 W/m² -
1788204616 33.33° C 52% 1013.5 hPa 0 mm - 728 W/m² -
1788204016 32.78° C 53% 1013.5 hPa 0 mm - 740 W/m² -
1788203416 32.78° C 54% 1013.7 hPa 0 mm - 741 W/m² -
1788202816 32.22° C 55% 1013.7 hPa 0 mm - 730 W/m² -
1788202223 32.78° C 52% 1013.7 hPa 0 mm - 759 W/m² -
1788201616 32.22° C 55% 1013.7 hPa 0 mm - 756 W/m² -
1788201016 32.22° C 54% 1013.7 hPa 0 mm - 755 W/m² -
1788200426 32.22° C 56% 1013.8 hPa 0 mm - 758 W/m² -
1788199816 31.67° C 55% 1013.8 hPa 0 mm - 752 W/m² -
1788199216 31.67° C 58% 1013.8 hPa 0 mm - 745 W/m² -
1788198616 31.11° C 59% 1013.9 hPa 0 mm - 742 W/m² -
1788198016 31.11° C 58% 1013.9 hPa 0 mm - 711 W/m² -
1788197416 31.11° C 57% 1013.8 hPa 0 mm - 725 W/m² -
1788196816 31.11° C 58% 1013.8 hPa 0 mm - 722 W/m² -

* Rain latest hour (hover to see other rain measurements)
** Current wind speed in m/s (hover to see current wind gust speed)